• In Hungary
  • List of Countries
  • For 7 days
  • Water Temperature
  • Satellite Maps
  • Weather Map
  • News
  • Weather Widgets
  • user-avatar
    Login

    Hourly Weather Prismara

    Today, 28 May, Monday

    Time Temperature Precipitation Wind Pressure Humidity
    00:00 +13°C° 0 mm 2 mps 749 mmHg 85%
    01:00 +13°C° 0 mm 2 mps 749 mmHg 86%
    02:00 +13°C° 0 mm 2 mps 749 mmHg 87%
    03:00 +13°C° 0 mm 2 mps 750 mmHg 88%
    04:00 +13°C° 0 mm 2 mps 750 mmHg 88%
    05:00 +13°C° 0 mm 2 mps 750 mmHg 88%
    06:00 +15°C° 0 mm 2 mps 750 mmHg 82%
    07:00 +17°C° 0 mm 2 mps 751 mmHg 76%
    08:00 +19°C° 0 mm 2 mps 751 mmHg 71%
    09:00 +20°C° 0 mm 3 mps 751 mmHg 66%
    10:00 +21°C° 0 mm 3 mps 751 mmHg 61%
    11:00 +22°C° 0 mm 4 mps 752 mmHg 57%
    12:00 +22°C° 0 mm 4 mps 752 mmHg 54%
    13:00 +23°C° 0 mm 4 mps 752 mmHg 51%
    14:00 +23°C° 0 mm 4 mps 752 mmHg 48%
    15:00 +22°C° 0 mm 4 mps 752 mmHg 50%
    16:00 +22°C° 0 mm 3 mps 752 mmHg 52%
    17:00 +21°C° 0 mm 3 mps 752 mmHg 53%
    18:00 +19°C° 0 mm 3 mps 752 mmHg 59%
    19:00 +17°C° 0 mm 3 mps 752 mmHg 65%
    20:00 +15°C° 0 mm 2 mps 752 mmHg 71%
    21:00 +14°C° 0 mm 2 mps 753 mmHg 72%
    22:00 +12°C° 0 mm 2 mps 753 mmHg 74%
    23:00 +10°C° 0 mm 2 mps 753 mmHg 76%

    Tomorrow, 29 May, Tuesday

    Time Temperature Precipitation Wind Pressure Humidity
    00:00 +10°C° 0 mm 2 mps 754 mmHg 77%
    01:00 +9°C° 0 mm 2 mps 754 mmHg 79%
    02:00 +8°C° 0 mm 2 mps 754 mmHg 81%
    03:00 +9°C° 0 mm 2 mps 754 mmHg 80%
    04:00 +9°C° 0 mm 2 mps 754 mmHg 79%
    05:00 +9°C° 0 mm 2 mps 754 mmHg 78%
    06:00 +12°C° 0 mm 2 mps 754 mmHg 71%
    07:00 +14°C° 0 mm 2 mps 754 mmHg 65%
    08:00 +16°C° 0 mm 2 mps 754 mmHg 58%
    09:00 +18°C° 0 mm 2 mps 753 mmHg 53%
    10:00 +20°C° 0 mm 2 mps 753 mmHg 48%
    11:00 +22°C° 0 mm 1 mps 753 mmHg 43%
    12:00 +23°C° 0 mm 1 mps 752 mmHg 42%
    13:00 +23°C° 0 mm 1 mps 752 mmHg 41%
    14:00 +24°C° 0 mm 1 mps 751 mmHg 40%
    15:00 +24°C° 0 mm 2 mps 751 mmHg 44%
    16:00 +23°C° 0 mm 2 mps 750 mmHg 48%
    17:00 +23°C° 0 mm 2 mps 749 mmHg 52%
    18:00 +20°C° 0 mm 2 mps 749 mmHg 60%
    19:00 +18°C° 0 mm 2 mps 749 mmHg 67%
    20:00 +16°C° 0 mm 2 mps 748 mmHg 75%
    21:00 +15°C° 0 mm 2 mps 748 mmHg 78%
    22:00 +15°C° 0 mm 2 mps 748 mmHg 80%
    23:00 +14°C° 0 mm 2 mps 748 mmHg 83%

    Day after tomorrow, 30 May, Wednesday

    Time Temperature Precipitation Wind Pressure Humidity
    00:00 +14°C° 0 mm 2 mps 748 mmHg 84%
    01:00 +13°C° 0 mm 3 mps 747 mmHg 85%
    02:00 +12°C° 0 mm 3 mps 747 mmHg 86%
    03:00 +13°C° 0 mm 3 mps 747 mmHg 85%
    04:00 +13°C° 0 mm 3 mps 746 mmHg 85%
    05:00 +14°C° 0 mm 3 mps 746 mmHg 84%
    06:00 +16°C° 0 mm 3 mps 746 mmHg 81%
    07:00 +18°C° 0 mm 3 mps 745 mmHg 78%
    08:00 +20°C° 0 mm 4 mps 745 mmHg 75%
    09:00 +21°C° 0.1 mm 4 mps 744 mmHg 71%
    10:00 +23°C° 0.1 mm 4 mps 744 mmHg 67%
    11:00 +25°C° 0.1 mm 4 mps 743 mmHg 63%
    12:00 +26°C° 0.5 mm 4 mps 743 mmHg 63%
    13:00 +26°C° 0.5 mm 5 mps 742 mmHg 63%
    14:00 +26°C° 0.5 mm 5 mps 742 mmHg 62%
    15:00 +26°C° 0.4 mm 4 mps 742 mmHg 65%
    16:00 +25°C° 0.4 mm 4 mps 741 mmHg 67%
    17:00 +25°C° 0.4 mm 4 mps 741 mmHg 70%
    18:00 +22°C° 0.1 mm 3 mps 740 mmHg 75%
    19:00 +21°C° 0.1 mm 3 mps 740 mmHg 80%
    20:00 +19°C° 0.1 mm 3 mps 740 mmHg 85%
    21:00 +19°C° 0.1 mm 3 mps 739 mmHg 88%
    22:00 +18°C° 0.1 mm 3 mps 739 mmHg 90%
    23:00 +17°C° 0.1 mm 3 mps 739 mmHg 93%

    31 May, Thursday

    Time Temperature Precipitation Wind Pressure Humidity
    00:00 +17°C° 0.1 mm 2 mps 739 mmHg 93%
    01:00 +16°C° 0.1 mm 2 mps 738 mmHg 94%
    02:00 +15°C° 0.1 mm 2 mps 738 mmHg 95%
    03:00 +15°C° 0 mm 2 mps 738 mmHg 94%
    04:00 +14°C° 0 mm 3 mps 738 mmHg 93%
    05:00 +13°C° 0 mm 3 mps 738 mmHg 91%
    06:00 +14°C° 0 mm 3 mps 739 mmHg 84%
    07:00 +15°C° 0 mm 4 mps 739 mmHg 77%
    08:00 +15°C° 0 mm 4 mps 739 mmHg 69%
    09:00 +16°C° 0 mm 5 mps 739 mmHg 63%
    10:00 +17°C° 0 mm 5 mps 740 mmHg 56%
    11:00 +19°C° 0 mm 5 mps 740 mmHg 49%
    12:00 +19°C° 0 mm 5 mps 740 mmHg 49%
    13:00 +19°C° 0 mm 5 mps 740 mmHg 49%
    14:00 +19°C° 0 mm 4 mps 740 mmHg 49%
    15:00 +18°C° 0 mm 4 mps 740 mmHg 52%
    16:00 +18°C° 0 mm 4 mps 741 mmHg 54%
    17:00 +17°C° 0 mm 4 mps 741 mmHg 56%
    18:00 +15°C° 0 mm 4 mps 741 mmHg 59%
    19:00 +14°C° 0 mm 4 mps 742 mmHg 62%
    20:00 +12°C° 0 mm 4 mps 742 mmHg 65%
    21:00 +12°C° 0 mm 4 mps 743 mmHg 64%
    22:00 +11°C° 0 mm 4 mps 743 mmHg 64%
    23:00 +10°C° 0 mm 4 mps 743 mmHg 64%

    1 June, Friday

    Time Temperature Precipitation Wind Pressure Humidity
    00:00 +8°C° 0 mm 4 mps 744 mmHg 63%
    01:00 +7°C° 0 mm 4 mps 744 mmHg 62%
    02:00 +6°C° 0 mm 4 mps 744 mmHg 61%
    03:00 +6°C° 0 mm 4 mps 745 mmHg 61%
    04:00 +6°C° 0 mm 4 mps 745 mmHg 60%
    05:00 +5°C° 0 mm 4 mps 745 mmHg 60%
    06:00 +7°C° 0 mm 4 mps 745 mmHg 57%
    07:00 +8°C° 0 mm 4 mps 746 mmHg 54%
    08:00 +10°C° 0 mm 5 mps 746 mmHg 51%
    09:00 +12°C° 0 mm 5 mps 746 mmHg 49%
    10:00 +13°C° 0 mm 5 mps 746 mmHg 47%
    11:00 +14°C° 0 mm 5 mps 746 mmHg 45%
    12:00 +14°C° 0 mm 5 mps 746 mmHg 44%
    13:00 +14°C° 0 mm 5 mps 746 mmHg 44%
    14:00 +15°C° 0 mm 5 mps 746 mmHg 44%
    15:00 +14°C° 0 mm 5 mps 746 mmHg 46%
    16:00 +14°C° 0 mm 4 mps 746 mmHg 48%
    17:00 +13°C° 0 mm 4 mps 746 mmHg 51%
    18:00 +12°C° 0 mm 4 mps 747 mmHg 55%
    19:00 +10°C° 0 mm 3 mps 747 mmHg 60%
    20:00 +9°C° 0 mm 3 mps 747 mmHg 64%
    21:00 +8°C° 0 mm 3 mps 748 mmHg 67%
    22:00 +7°C° 0 mm 3 mps 748 mmHg 69%
    23:00 +5°C° 0 mm 3 mps 748 mmHg 71%

    2 June, Saturday

    Time Temperature Precipitation Wind Pressure Humidity
    00:00 +4°C° 0 mm 3 mps 748 mmHg 73%
    01:00 +4°C° 0 mm 3 mps 749 mmHg 75%
    02:00 +3°C° 0 mm 3 mps 749 mmHg 76%
    03:00 +3°C° 0 mm 3 mps 749 mmHg 75%
    04:00 +4°C° 0 mm 3 mps 749 mmHg 75%
    05:00 +4°C° 0 mm 3 mps 749 mmHg 74%
    06:00 +7°C° 0 mm 3 mps 750 mmHg 67%
    07:00 +9°C° 0 mm 3 mps 750 mmHg 60%
    08:00 +11°C° 0 mm 4 mps 750 mmHg 53%
    09:00 +12°C° 0 mm 4 mps 750 mmHg 51%
    10:00 +13°C° 0 mm 4 mps 749 mmHg 48%
    11:00 +14°C° 0 mm 4 mps 749 mmHg 45%
    12:00 +15°C° 0 mm 4 mps 749 mmHg 45%
    13:00 +17°C° 0 mm 4 mps 749 mmHg 44%
    14:00 +17°C° 0 mm 4 mps 748 mmHg 43%
    15:00 +17°C° 0 mm 3 mps 748 mmHg 45%
    16:00 +17°C° 0 mm 3 mps 748 mmHg 47%
    17:00 +17°C° 0 mm 3 mps 747 mmHg 49%
    18:00 +15°C° 0 mm 2 mps 747 mmHg 56%
    19:00 +13°C° 0 mm 2 mps 748 mmHg 63%
    20:00 +11°C° 0 mm 1 mps 748 mmHg 70%
    21:00 +10°C° 0 mm 1 mps 748 mmHg 72%
    22:00 +9°C° 0 mm 1 mps 748 mmHg 75%
    23:00 +7°C° 0 mm 0 mps 748 mmHg 77%
    Show more